Temperature
21 20 19 19 19 19 19 19 18 18 18 18 18 18 18 18 18 18 18 18 18 18 18 18 18 18 18 18 19 19 19 19 19 18 18 18 19 19 19 19 19 19 19
21 20 20 20 20 20 19 19 19 18 18 18 18 18 18 18 19 19 19 19 19 18 18 18 18 18 18 18 18 18 18 18 18 18 18 18 18 19 20 20 20 19 19
22 21 20 20 20 20 20 19 19 18 18 18 17 17 17 17 18 18 18 18 19 19 19 18 18 18 17 17 17 17 17 17 17 17 17 17 18 19 20 20 20 19 19
23 23 22 22 21 21 20 19 19 18 17 17 16 16 16 16 16 16 17 17 17 17 18 18 17 17 17 17 16 16 16 16 16 16 16 16 17 17 17 18 19 19 18
24 23 22 22 21 20 20 19 18 18 17 16 16 16 16 16 16 16 16 16 16 17 17 17 16 16 16 16 16 16 15 15 15 15 15 16 16 16 16 16 17 17 17
24 23 23 22 21 20 19 19 18 17 17 16 16 16 15 15 15 16 16 15 15 16 16 16 15 15 15 15 15 15 15 15 15 15 15 15 16 16 16 15 16 16 17
24 24 23 22 21 20 19 18 18 17 16 16 16 16 15 16 15 15 15 15 15 15 15 15 15 15 14 14 14 14 14 15 15 15 15 15 15 15 15 15 15 15 16
24 24 23 22 21 20 19 18 17 16 16 16 16 16 15 15 15 15 15 15 14 14 14 15 14 14 14 14 14 14 14 14 14 14 14 15 15 15 15 15 14 15 16
24 24 23 22 21 20 19 18 17 16 15 15 15 15 15 15 14 14 14 14 14 14 14 14 14 14 14 14 14 14 14 14 14 14 14 14 14 14 14 14 14 14 14
25 24 23 22 20 19 18 17 16 15 15 14 14 14 14 14 14 14 13 13 13 13 13 13 13 13 13 13 14 14 14 14 14 14 14 14 14 14 14 14 14 14 14
24 23 22 21 20 19 17 16 15 15 14 14 13 13 13 13 13 13 13 12 12 12 12 13 13 13 13 13 13 14 14 14 14 14 14 13 14 14 14 14 14 14 14
23 22 22 21 19 18 17 16 15 15 14 13 13 12 12 12 12 12 12 12 12 12 12 12 12 12 12 13 13 13 13 13 13 13 13 13 13 13 13 13 13 13 14
23 22 21 20 19 18 17 16 15 15 14 13 13 12 12 11 11 12 11 11 11 11 11 12 12 12 12 12 13 13 13 13 13 13 12 12 12 13 13 13 13 13 13
22 22 21 20 19 18 17 16 15 14 14 13 13 12 12 12 11 11 11 11 11 11 11 11 12 12 12 12 12 12 12 12 12 12 12 12 12 12 12 12 12 13 13
22 22 21 20 19 18 17 16 15 14 14 13 13 13 12 12 12 12 11 11 11 11 11 11 12 12 12 12 12 12 12 12 12 12 12 12 12 12 12 12 13 13 13
22 22 21 20 19 18 17 16 15 14 14 14 13 13 12 12 12 12 12 11 11 11 11 11 12 12 12 12 12 12 11 12 12 12 12 12 12 12 12 12 12 12 12
22 21 20 19 19 17 17 16 15 14 14 14 13 13 12 12 12 12 12 12 12 11 11 11 12 12 12 11 11 11 11 11 12 12 12 11 11 11 12 12 12 12 12
20 20 20 19 18 17 17 16 15 14 14 13 13 13 13 12 12 12 12 12 12 11 11 12 12 12 12 11 11 11 11 11 11 11 11 12 11 11 11 11 11 11 11
19 20 19 19 18 17 17 16 15 14 14 13 13 13 13 13 13 12 12 12 12 11 11 12 12 12 12 12 11 11 11 11 11 11 11 11 11 11 11 11 11 11 11
17 18 19 19 18 17 16 16 15 14 14 13 13 13 13 13 13 13 13 12 12 12 11 12 12 12 12 12 11 11 11 11 11 11 11 11 11 11 11 11 11 11 11
15 16 16 17 17 17 16 15 15 14 14 13 13 13 13 13 13 12 12 12 12 11 11 12 12 12 12 12 11 11 11 11 11 11 10 10 10 10 10 10 10 10 11
13 13 14 14 15 16 16 15 15 14 14 13 13 13 13 12 12 12 12 12 11 11 11 11 11 11 11 12 12 11 11 11 11 11 10 10 10 10 10 10 10 10 10
11 12 12 12 13 14 14 14 14 14 14 13 13 13 13 12 12 12 12 11 11 11 11 11 11 11 11 12 12 11 11 11 11 11 10 10 10 10 9 9 9 9 9
10 11 11 11 12 12 13 13 14 13 13 13 13 13 12 12 12 12 12 11 11 11 11 11 11 11 11 11 11 11 11 11 11 10 10 10 10 10 9 9 9 9 9
10 10 10 11 11 11 11 12 13 13 13 13 13 12 12 12 12 12 11 11 11 11 11 11 11 11 11 11 11 11 11 10 10 10 10 10 10 10 10 10 9 9 8
9 9 9 10 10 10 11 11 12 13 13 12 12 12 12 12 12 11 11 11 11 11 11 11 11 11 11 11 11 11 10 10 10 10 10 10 10 10 10 10 10 9 8
Wind_Speed
3 2 4 5 5 5 4 4 5 4 3 5 7 8 7 7 8 9 8 8 8 7 6 8 6 7 7 8 8 8 8 7 5 4 6 9 11 10 9 9 9 10 9
6 6 6 6 5 6 7 7 7 6 4 4 5 6 8 7 6 6 6 7 7 7 8 8 7 7 7 9 9 8 7 6 6 5 5 5 6 8 9 8 9 9 7
9 10 10 9 7 6 6 6 5 4 5 6 6 8 7 7 8 9 9 10 9 9 9 9 8 7 8 9 9 9 10 8 6 6 6 5 4 3 4 3 2 2 3
3 3 1 2 4 5 6 5 4 5 6 7 9 11 10 11 11 9 9 9 10 10 9 9 8 8 7 7 7 7 6 6 5 4 6 7 3 1 3 4 4 5 5
4 3 3 3 5 5 5 5 6 5 6 7 9 10 12 12 11 11 11 10 8 7 8 8 8 7 6 5 4 3 2 2 2 4 4 4 2 3 3 4 4 4 4
7 6 5 5 4 4 5 5 7 8 7 6 7 8 11 13 14 14 12 9 6 6 8 8 7 7 6 7 6 5 5 4 5 5 4 4 2 1 2 3 3 4 4
6 5 5 4 3 5 5 4 6 6 7 7 7 7 10 12 14 14 12 9 6 6 8 9 8 8 8 8 7 7 7 7 6 4 4 4 3 1 1 2 3 3 4
7 5 4 3 4 4 4 2 4 6 7 8 8 9 9 10 11 11 9 7 5 4 5 7 7 8 8 8 7 7 7 5 5 4 4 3 3 2 3 2 1 3 3
8 9 6 4 4 5 3 3 3 4 5 7 8 8 9 10 10 9 6 4 3 3 3 2 4 5 6 6 5 5 5 5 5 4 4 3 2 1 0 1 2 2 3
12 9 6 6 6 4 2 3 1 0 2 5 7 7 8 9 8 4 1 1 2 3 3 3 3 1 2 3 3 4 4 5 4 4 4 2 1 2 0 0 1 1 1
14 10 7 6 5 3 0 2 3 4 4 4 6 6 6 6 6 5 6 6 5 4 3 3 3 1 1 1 1 3 5 5 5 5 4 4 5 3 4 3 3 2 2
10 8 7 5 5 4 3 5 5 6 5 4 4 4 3 4 5 6 7 6 5 4 3 2 1 2 1 1 1 2 5 5 5 6 7 6 6 6 6 5 4 3 1
10 8 5 5 4 4 4 5 6 5 5 4 3 2 1 1 2 3 3 1 2 3 3 3 3 2 1 2 4 5 6 7 8 7 7 8 8 8 6 6 5 4 2
9 7 4 4 3 3 4 5 6 6 6 5 3 3 2 1 2 4 4 3 3 4 3 2 1 2 4 5 6 6 7 8 9 9 9 9 8 6 6 6 7 6 5
11 8 5 3 3 4 5 6 6 5 5 5 5 5 4 3 3 4 5 4 2 1 1 1 1 3 5 6 6 7 9 8 9 9 9 9 8 8 7 7 6 7 7
13 9 6 5 4 5 6 6 6 5 6 6 5 6 5 4 4 5 5 5 4 2 0 1 4 7 8 12 12 8 8 8 8 7 7 8 9 6 7 8 8 9 8
12 8 6 5 4 5 5 5 6 6 5 5 6 7 7 6 6 7 7 6 5 4 2 4 8 8 8 12 12 9 7 8 9 9 9 9 10 11 8 2 0 5 9
13 9 6 5 6 6 7 6 7 6 6 6 6 8 8 7 6 6 7 6 5 5 4 7 8 7 6 10 12 10 9 8 8 9 10 9 9 11 11 9 8 7 7
14 10 7 8 6 7 7 6 7 7 7 8 7 10 11 10 8 7 7 5 5 6 6 7 8 6 4 6 11 11 5 7 10 10 10 9 8 13 14 9 8 9 9
17 13 9 8 7 7 7 7 8 9 10 9 8 11 12 12 11 10 7 5 5 6 7 7 7 7 5 4 7 8 1 6 8 8 9 11 8 10 12 7 7 8 8
21 19 14 8 7 8 8 9 9 10 11 10 9 10 13 14 13 10 8 6 6 7 7 7 7 7 7 6 7 7 4 0 5 8 7 5 7 8 9 7 5 8 9
22 21 18 14 9 9 11 11 11 9 9 10 10 9 11 13 14 13 11 9 8 7 7 7 6 6 6 6 8 9 8 5 5 7 8 5 6 6 7 6 10 14 12
21 18 18 17 15 12 12 14 12 10 9 10 11 9 10 10 11 14 14 11 9 9 9 9 8 7 6 6 9 10 11 12 8 7 9 8 5 2 2 3 7 8 6
20 18 17 18 16 16 16 15 12 11 10 10 10 9 9 9 10 11 11 12 12 10 10 10 9 8 7 7 6 6 7 10 9 7 7 5 4 4 7 5 3 2 4
19 19 17 16 17 14 18 16 15 13 12 11 10 11 11 10 10 11 10 11 10 10 9 8 8 9 8 8 9 6 4 4 5 7 5 4 5 6 6 4 4 4 4
18 20 21 20 19 15 14 16 14 15 14 12 11 11 11 10 10 10 7 3 5 10 12 10 10 9 11 15 14 12 11 10 8 5 5 7 7 5 3 2 4 5 5
Wind_Direction
131 186 249 248 231 225 233 249 267 288 311 308 306 297 288 280 271 268 270 275 274 264 247 253 248 231 238 242 233 226 225 225 212 232 263 261 250 241 232 227 230 238 246
169 188 207 226 231 216 214 222 237 260 274 279 288 284 284 283 283 277 270 261 258 258 253 248 253 249 249 251 247 240 236 227 208 207 238 255 247 244 240 220 217 227 240
187 195 204 214 229 239 242 256 252 261 274 274 276 275 271 266 262 257 252 247 241 236 234 241 246 250 247 247 243 238 237 235 233 223 231 246 245 349 334 330 230 229 274
166 179 212 336 326 331 331 327 297 250 244 249 257 263 269 271 271 267 259 248 238 235 231 233 237 245 248 247 249 243 241 241 250 265 255 259 288 328 331 331 339 6 346
214 235 255 276 287 298 305 311 299 279 261 251 252 259 265 268 272 273 267 258 247 227 225 223 225 225 229 231 228 228 227 228 250 265 273 268 259 204 227 279 310 322 301
232 229 237 245 255 285 296 305 313 304 290 272 267 267 272 274 276 276 275 271 247 217 212 215 218 219 222 220 214 210 215 212 231 252 269 277 274 232 224 256 284 291 293
271 266 272 280 279 279 279 290 307 328 338 331 316 297 284 280 273 270 268 259 239 219 213 217 225 229 228 222 212 210 214 215 223 244 271 281 270 252 216 232 262 286 293
288 283 281 277 277 283 283 310 358 351 343 334 325 316 306 294 283 274 262 249 234 211 199 215 230 235 231 223 215 217 212 207 210 223 244 259 270 240 220 224 287 318 314
295 291 288 320 342 346 359 40 25 0 346 337 333 327 325 315 300 287 260 220 183 152 148 198 226 231 231 227 220 212 200 192 195 203 209 218 238 234 25 15 30 359 332
312 314 347 352 354 359 29 90 74 159 315 328 333 333 336 337 329 319 296 121 114 117 133 120 120 160 208 200 187 190 191 181 173 166 156 166 153 95 51 2 359 7 306
335 340 344 342 343 337 181 192 221 211 240 290 322 334 346 357 17 37 53 54 50 38 55 71 85 118 210 191 186 176 159 147 140 140 129 100 73 48 19 22 35 22 11
323 316 321 337 335 314 257 241 241 229 238 269 309 328 350 15 40 53 50 40 29 8 354 350 329 272 220 187 197 136 117 115 100 84 77 68 65 52 41 13 15 11 31
325 316 312 309 311 294 257 263 270 258 250 263 272 292 307 53 85 103 95 34 309 297 290 280 281 297 79 90 85 84 83 81 79 75 67 57 50 38 19 10 23 13 15
311 300 288 285 288 269 251 260 275 265 250 250 236 222 201 179 156 159 163 193 257 278 278 269 328 49 85 96 93 87 80 80 76 68 61 53 48 37 6 34 27 14 2
308 296 290 283 261 248 235 242 250 248 251 256 238 206 190 181 157 142 153 166 200 229 8 30 63 88 86 77 76 93 92 94 91 83 78 71 68 63 50 56 35 30 27
302 295 309 305 266 245 243 238 230 234 240 248 241 197 189 177 149 147 153 147 141 124 76 14 59 63 69 44 39 87 97 98 100 104 111 97 56 51 59 66 54 49 44
301 301 303 297 258 246 243 235 225 227 238 242 233 187 184 175 164 162 156 152 152 153 148 86 79 75 54 40 38 67 97 83 72 63 58 62 40 23 1 355 90 71 53
323 307 298 289 254 237 232 220 217 212 217 226 210 176 174 168 164 158 153 165 169 152 129 106 99 93 70 42 35 33 99 91 84 79 79 65 41 21 8 18 24 29 15
310 291 266 267 261 240 236 222 207 206 213 216 198 175 171 167 167 160 161 173 164 148 146 128 123 117 94 46 39 23 101 92 75 65 66 70 50 23 21 23 20 10 354
326 317 279 246 241 232 229 226 215 205 209 211 204 178 172 174 179 176 173 178 170 164 161 149 146 145 141 98 61 26 22 125 118 106 86 70 64 39 25 24 22 3 333
336 337 323 269 238 222 213 220 224 214 205 204 207 188 177 181 186 185 182 181 182 178 172 162 156 156 152 122 80 59 40 130 160 143 118 95 76 53 26 23 21 344 326
336 340 339 327 286 241 216 216 220 217 204 201 205 202 184 187 192 189 191 191 188 179 169 162 157 149 143 126 104 86 61 47 99 109 116 124 102 60 23 17 358 356 360
330 334 332 331 320 286 243 223 215 209 210 206 202 201 190 195 186 186 189 189 189 189 180 173 172 166 144 119 120 106 89 85 91 101 121 135 129 69 302 290 329 355 11
321 322 325 325 327 326 285 243 221 205 208 211 200 190 187 185 180 183 184 187 189 193 188 185 184 165 153 155 158 144 121 115 122 127 128 147 194 257 283 267 244 69 31
312 314 312 312 313 326 322 273 229 209 207 206 198 188 188 183 181 185 188 195 194 194 190 190 178 161 169 169 165 166 162 174 152 145 153 192 215 233 238 199 122 87 47
307 308 310 311 312 314 327 310 257 215 204 203 198 191 187 180 180 177 161 74 178 191 200 182 160 159 154 143 135 124 114 105 122 157 205 217 220 204 177 115 122 108 75
Height
1508 1508 1509 1509 1509 1509 1509 1509 1509 1509 1508 1507 1507 1506 1505 1505 1504 1505 1505 1505 1505 1506 1505 1505 1505 1505 1505 1506 1506 1505 1506 1507 1508 1509 1508 1507 1505 1501 1501 1503 1506 1508 1509
1506 1507 1508 1509 1509 1509 1508 1508 1507 1507 1506 1505 1503 1502 1501 1500 1500 1499 1499 1499 1499 1499 1499 1498 1499 1499 1499 1500 1501 1500 1499 1500 1501 1502 1503 1502 1500 1496 1495 1497 1500 1502 1504
1503 1505 1506 1507 1507 1507 1507 1506 1505 1503 1502 1501 1499 1496 1495 1493 1493 1492 1492 1492 1492 1491 1491 1491 1491 1491 1491 1492 1493 1494 1494 1493 1494 1495 1497 1496 1493 1491 1490 1493 1496 1498 1499
1502 1503 1505 1506 1506 1506 1505 1504 1502 1500 1498 1496 1494 1492 1490 1488 1487 1486 1484 1483 1483 1482 1482 1482 1482 1483 1483 1484 1486 1486 1487 1487 1488 1489 1489 1490 1489 1488 1487 1490 1492 1493 1492
1500 1502 1503 1503 1504 1504 1503 1501 1499 1497 1495 1492 1490 1488 1485 1483 1481 1479 1477 1476 1475 1474 1474 1474 1474 1475 1476 1477 1479 1480 1481 1482 1482 1483 1484 1484 1484 1484 1486 1487 1488 1488 1488
1497 1498 1499 1499 1500 1500 1499 1498 1496 1494 1491 1488 1485 1482 1480 1477 1474 1472 1470 1469 1468 1467 1467 1467 1468 1469 1470 1471 1473 1474 1476 1477 1478 1479 1479 1480 1480 1481 1483 1484 1484 1483 1484
1493 1494 1495 1495 1496 1495 1494 1493 1491 1488 1486 1483 1480 1477 1474 1471 1468 1465 1463 1462 1462 1462 1462 1462 1462 1463 1465 1466 1468 1470 1471 1473 1474 1475 1475 1476 1477 1479 1480 1480 1480 1480 1481
1490 1490 1491 1491 1491 1491 1490 1488 1486 1483 1480 1477 1474 1471 1468 1464 1461 1458 1457 1456 1456 1457 1458 1458 1459 1459 1460 1462 1464 1466 1467 1469 1470 1471 1472 1474 1475 1476 1477 1477 1477 1478 1479
1486 1487 1487 1487 1488 1487 1486 1484 1481 1479 1476 1473 1470 1467 1463 1458 1454 1451 1450 1451 1452 1453 1454 1455 1456 1457 1458 1459 1460 1462 1464 1465 1466 1468 1470 1472 1473 1473 1474 1474 1475 1477 1478
1482 1482 1483 1484 1485 1484 1482 1480 1478 1475 1473 1470 1467 1463 1459 1454 1449 1447 1446 1447 1448 1450 1452 1453 1454 1456 1457 1457 1458 1459 1461 1463 1465 1466 1468 1470 1471 1471 1472 1472 1474 1476 1478
1481 1481 1481 1482 1482 1481 1479 1477 1475 1472 1470 1467 1464 1461 1457 1453 1448 1445 1444 1446 1447 1449 1451 1453 1454 1455 1456 1456 1457 1459 1460 1462 1464 1465 1467 1468 1469 1469 1470 1472 1473 1475 1476
1479 1479 1479 1479 1479 1478 1477 1475 1473 1470 1468 1465 1462 1459 1457 1453 1450 1447 1446 1448 1449 1450 1451 1453 1455 1456 1457 1457 1458 1459 1461 1463 1464 1465 1466 1467 1468 1469 1470 1472 1473 1474 1474
1476 1475 1475 1475 1475 1474 1473 1472 1471 1469 1466 1464 1461 1459 1457 1455 1452 1450 1450 1451 1451 1452 1452 1454 1455 1457 1458 1458 1459 1461 1462 1464 1465 1466 1467 1468 1469 1471 1472 1473 1473 1474 1474
1471 1471 1470 1470 1470 1470 1470 1469 1468 1466 1464 1462 1460 1458 1457 1455 1454 1453 1453 1453 1454 1454 1454 1455 1456 1458 1459 1460 1461 1462 1463 1465 1467 1468 1470 1471 1472 1474 1474 1474 1474 1474 1474
1468 1467 1466 1466 1465 1465 1465 1464 1464 1463 1461 1460 1459 1457 1456 1455 1455 1455 1455 1455 1456 1456 1457 1457 1459 1461 1462 1462 1463 1464 1465 1467 1469 1471 1473 1475 1475 1476 1477 1476 1476 1475 1474
1465 1463 1463 1462 1461 1461 1460 1460 1459 1459 1458 1457 1456 1455 1454 1455 1455 1455 1456 1457 1457 1459 1460 1461 1462 1463 1463 1465 1466 1467 1468 1470 1472 1474 1476 1477 1478 1479 1479 1479 1478 1477 1477
1461 1460 1459 1459 1458 1457 1456 1455 1455 1455 1455 1454 1453 1452 1452 1453 1454 1455 1456 1457 1459 1460 1462 1464 1464 1465 1466 1468 1469 1471 1472 1473 1475 1476 1478 1479 1480 1481 1481 1481 1481 1480 1479
1462 1459 1456 1455 1454 1452 1452 1451 1450 1450 1450 1450 1450 1449 1450 1452 1454 1455 1456 1458 1460 1461 1463 1465 1466 1467 1469 1470 1472 1473 1474 1476 1477 1478 1480 1481 1482 1482 1482 1481 1481 1480 1479
1460 1456 1452 1450 1449 1448 1447 1447 1446 1446 1446 1446 1446 1446 1448 1450 1452 1453 1455 1457 1459 1461 1464 1465 1467 1469 1470 1472 1474 1475 1477 1478 1479 1480 1481 1483 1483 1483 1482 1481 1481 1480 1479
1456 1451 1446 1443 1443 1442 1442 1442 1441 1441 1441 1442 1443 1443 1445 1447 1450 1452 1454 1456 1459 1461 1463 1465 1468 1470 1471 1473 1475 1476 1478 1479 1481 1482 1483 1484 1484 1484 1483 1481 1481 1480 1480
1451 1446 1442 1437 1436 1435 1435 1435 1435 1436 1436 1437 1439 1440 1441 1443 1446 1449 1452 1454 1457 1460 1463 1465 1467 1469 1472 1474 1475 1477 1478 1480 1481 1482 1483 1484 1484 1484 1483 1482 1481 1481 1481
1448 1442 1438 1433 1431 1429 1427 1426 1427 1429 1431 1432 1434 1436 1437 1439 1442 1444 1448 1451 1455 1458 1461 1463 1466 1468 1470 1473 1475 1477 1479 1480 1481 1482 1483 1484 1484 1484 1483 1483 1483 1482 1481
1447 1440 1435 1430 1426 1423 1420 1418 1419 1422 1424 1426 1428 1430 1433 1435 1437 1440 1443 1447 1451 1455 1458 1461 1463 1466 1468 1471 1474 1476 1478 1480 1481 1482 1483 1484 1485 1484 1485 1485 1485 1484 1482
1444 1438 1431 1424 1419 1416 1412 1410 1412 1415 1417 1419 1421 1424 1427 1430 1432 1436 1439 1443 1447 1451 1455 1458 1461 1464 1466 1469 1472 1475 1477 1479 1480 1482 1483 1484 1485 1485 1485 1485 1485 1484 1483
1439 1435 1429 1422 1414 1409 1404 1401 1405 1407 1409 1412 1415 1418 1421 1424 1427 1431 1435 1440 1444 1448 1451 1455 1458 1461 1464 1468 1471 1473 1476 1478 1479 1481 1483 1484 1484 1484 1484 1485 1485 1484 1483
1433 1428 1423 1417 1410 1403 1398 1394 1394 1398 1402 1405 1409 1412 1415 1419 1423 1427 1431 1436 1440 1444 1448 1452 1456 1458 1462 1466 1469 1472 1474 1476 1478 1480 1482 1482 1483 1484 1485 1486 1485 1483 1483